KC4LW Weather Reports


time (UTC)temp
C
wind
direction
speed
KPH
gust
KPH
rain 1hr
cm
rain 24hr
cm
rain mn
cm
humidity
%
barometer
mb
20260506050105 18 0 0.0 0.0 0.00 0.00 0.00 84 1015.7
20260506044554 18 0 0.0 0.0 0.00 0.00 0.00 83 1015.7
20260506043051 18 0 0.0 0.0 0.00 0.00 0.00 82 1015.6
20260506041553 19 0 0.0 0.0 0.00 0.00 0.00 81 1015.8
20260506040057 19 0 0.0 0.0 0.00 0.00 0.00 80 1015.9
20260506034614 20 0 0.0 0.0 0.00 0.00 0.00 78 1015.8
20260506033054 20 0 0.0 0.0 0.00 0.00 0.00 77 1015.9
20260506031607 21 0 0.0 3.2 0.00 0.00 0.00 76 1015.8
20260506030058 21 0 0.0 3.2 0.00 0.00 0.00 75 1015.5
20260506024618 21 0 0.0 3.2 0.00 0.00 0.00 74 1015.2
20260506023054 21 0 1.6 6.4 0.00 0.00 0.00 73 1015.2
20260506021554 21 68 1.6 6.4 0.00 0.00 0.00 72 1015.0
20260506020058 21 96 1.6 9.7 0.00 0.00 0.00 71 1015.0
20260506014553 21 0 1.6 6.4 0.00 0.00 0.00 71 1015.1
20260506013103 21 93 0.0 6.4 0.00 0.00 0.00 70 1015.0
20260506011604 21 93 1.6 4.8 0.00 0.00 0.00 70 1014.9
20260506010057 21 87 1.6 4.8 0.00 0.00 0.00 70 1014.8
20260506004556 22 92 3.2 12.9 0.00 0.00 0.00 69 1014.9
20260506003052 22 0 1.6 6.4 0.00 0.00 0.00 70 1014.9
20260506001555 22 105 1.6 9.7 0.00 0.00 0.00 70 1014.7
20260506000052 22 0 1.6 14.5 0.00 0.00 0.00 69 1014.5
20260505234556 22 83 4.8 14.5 0.00 0.00 0.00 68 1014.5
20260505233051 22 109 6.4 17.7 0.00 0.00 0.00 66 1014.6
20260505231554 23 74 3.2 14.5 0.00 0.00 0.00 68 1014.5
20260505230105 23 84 6.4 17.7 0.00 0.00 0.00 67 1014.6
20260505224553 23 87 4.8 17.7 0.00 0.00 0.00 67 1014.7
20260505223109 23 96 4.8 20.9 0.00 0.00 0.00 66 1014.6
20260505221552 23 136 3.2 20.9 0.00 0.00 0.00 67 1014.7
20260505220112 24 114 4.8 20.9 0.00 0.00 0.00 65 1014.7
20260505214556 24 128 4.8 12.9 0.00 0.00 0.00 64 1014.5
20260505213059 24 114 6.4 17.7 0.00 0.00 0.00 62 1014.7
20260505211556 25 64 4.8 17.7 0.00 0.00 0.00 60 1014.5
20260505210056 24 74 6.4 16.1 0.00 0.00 0.00 61 1014.8
20260505204601 25 26 4.8 22.5 0.00 0.00 0.00 59 1014.9
20260505203102 25 76 8.0 17.7 0.00 0.00 0.00 58 1014.9
20260505201553 25 98 4.8 20.9 0.00 0.00 0.00 60 1015.4
20260505200051 25 115 6.4 20.9 0.00 0.00 0.00 61 1015.3
20260505194604 25 87 6.4 20.9 0.00 0.00 0.00 59 1015.6
20260505193052 26 182 4.8 19.3 0.00 0.00 0.00 57 1015.6
20260505191553 26 124 3.2 19.3 0.00 0.00 0.00 58 1015.6
20260505190055 25 36 4.8 20.9 0.00 0.00 0.00 57 1015.8
20260505184552 26 81 6.4 17.7 0.00 0.00 0.00 58 1016.1
20260505183101 26 51 1.6 17.7 0.00 0.00 0.00 59 1016.1
20260505181556 25 96 3.2 12.9 0.00 0.00 0.00 58 1016.1
20260505180059 26 61 3.2 16.1 0.00 0.00 0.00 61 1016.2
20260505174552 25 100 6.4 19.3 0.00 0.00 0.00 61 1016.5
20260505173052 25 88 6.4 17.7 0.00 0.00 0.00 60 1016.4
20260505171556 25 90 3.2 14.5 0.00 0.00 0.00 60 1016.4
20260505170056 25 98 8.0 17.7 0.00 0.00 0.00 59 1016.7
20260505164601 26 157 3.2 12.9 0.00 0.00 0.00 59 1016.9
20260505163101 26 240 3.2 12.9 0.00 0.00 0.00 58 1016.8
20260505161558 25 46 4.8 14.5 0.00 0.00 0.00 61 1017.0
20260505153115 26 0 3.2 11.3 0.00 0.00 0.00 58 1017.0
20260505151605 25 80 3.2 17.7 0.00 0.00 0.00 60 1016.8
20260505140106 24 119 6.4 16.1 0.00 0.00 0.00 67 1016.7
20260505124556 20 0 0.0 4.8 0.00 0.03 0.00 88 1016.2
20260505123103 17 0 0.0 1.6 0.00 0.03 0.00 96 1016.1
20260505121553 16 0 0.0 3.2 0.00 0.03 0.00 96 1016.1
20260505120052 15 0 0.0 0.0 0.00 0.03 0.00 96 1015.8
20260505114549 15 0 0.0 0.0 0.00 0.03 0.00 96 1015.6
20260505113055 14 0 0.0 0.0 0.00 0.03 0.00 95 1015.8
20260505111555 14 0 0.0 3.2 0.00 0.03 0.00 95 1015.7
20260505101552 13 0 0.0 0.0 0.00 0.05 0.00 94 1015.0
20260505100054 14 0 0.0 0.0 0.00 0.05 0.00 94 1015.0
20260505094553 14 0 0.0 0.0 0.00 0.05 0.00 93 1014.9
20260505093054 14 88 0.0 0.0 0.00 0.05 0.00 93 1014.7
20260505091559 14 0 0.0 0.0 0.00 0.05 0.00 92 1014.5
20260505090059 14 0 0.0 0.0 0.00 0.05 0.00 92 1014.6
20260505084552 14 0 0.0 0.0 0.00 0.05 0.00 92 1014.5
20260505083054 15 0 0.0 0.0 0.00 0.05 0.00 91 1014.5
20260505081559 15 0 0.0 0.0 0.00 0.05 0.00 90 1014.3
20260505080052 15 0 0.0 0.0 0.00 0.05 0.00 90 1014.4
20260505074605 15 0 0.0 0.0 0.00 0.05 0.00 89 1014.5
20260505073054 15 0 0.0 0.0 0.00 0.05 0.00 89 1014.5
20260505071556 15 0 0.0 0.0 0.00 0.05 0.00 88 1014.7
20260505070057 15 0 0.0 0.0 0.00 0.05 0.00 86 1014.7
20260505064556 16 0 0.0 0.0 0.00 0.05 0.00 84 1014.8
20260505063100 16 0 0.0 0.0 0.00 0.05 0.00 83 1015.0
20260505061625 16 0 0.0 0.0 0.00 0.05 0.00 81 1015.2
20260505060059 17 0 0.0 0.0 0.00 0.05 0.00 79 1015.4